<?xml version="1.0" encoding="UTF-8" standalone="no" ?>
<gpx xmlns="http://www.topografix.com/GPX/1/1" xmlns:xsi="http://www.w3.org/2001/XMLSchema-instance" xsi:schemaLocation="http://www.topografix.com/GPX/1/1 http://www.topografix.com/GPX/1/1/gpx.xsd" version="1.1" creator="VisuGPX - https://www.visugpx.com">
  <metadata>
    <name>StMore Arcy19km450m</name>
    <desc><![CDATA[Saint more, Arcy sur Cure
Dist 17km.   Dev+ 350parking St More Plce château ]]></desc>
  </metadata>
  <trk>
    <name><![CDATA[StMore Arcy19km450m]]></name>
    <extensions>
      <line xmlns="http://www.topografix.com/GPX/gpx_style/0/2">
        <color>0000FF</color>
        <width>4</width>
      </line>
    </extensions>
    <trkseg>
      <trkpt lat="47.57766" lon="3.77777">
        <ele>125</ele>
        <time>2016-09-15T12:29:15Z</time>
      </trkpt>
      <trkpt lat="47.57767" lon="3.77762">
        <ele>125</ele>
        <time>2016-09-15T12:29:15Z</time>
      </trkpt>
      <trkpt lat="47.57777" lon="3.77749">
        <ele>125</ele>
        <time>2016-09-15T12:29:15Z</time>
      </trkpt>
      <trkpt lat="47.57783" lon="3.77756">
        <ele>125</ele>
        <time>2016-09-15T12:29:15Z</time>
      </trkpt>
      <trkpt lat="47.5779" lon="3.77756">
        <ele>125</ele>
        <time>2016-09-15T12:29:15Z</time>
      </trkpt>
      <trkpt lat="47.57797" lon="3.7776">
        <ele>125</ele>
        <time>2016-09-15T12:29:15Z</time>
      </trkpt>
      <trkpt lat="47.578" lon="3.77768">
        <ele>125</ele>
        <time>2016-09-15T12:29:15Z</time>
      </trkpt>
      <trkpt lat="47.57936" lon="3.77656">
        <ele>125</ele>
        <time>2016-09-15T12:29:15Z</time>
      </trkpt>
      <trkpt lat="47.57944" lon="3.77648">
        <ele>125</ele>
        <time>2016-09-15T12:29:15Z</time>
      </trkpt>
      <trkpt lat="47.57951" lon="3.77661">
        <ele>125</ele>
        <time>2016-09-15T12:29:15Z</time>
      </trkpt>
      <trkpt lat="47.57969" lon="3.77658">
        <ele>125</ele>
        <time>2016-09-15T12:29:15Z</time>
      </trkpt>
      <trkpt lat="47.57976" lon="3.77658">
        <ele>125</ele>
        <time>2016-09-15T12:29:15Z</time>
      </trkpt>
      <trkpt lat="47.57987" lon="3.77659">
        <ele>125</ele>
        <time>2016-09-15T12:29:15Z</time>
      </trkpt>
      <trkpt lat="47.58123" lon="3.77637">
        <ele>126</ele>
        <time>2016-09-15T12:29:15Z</time>
      </trkpt>
      <trkpt lat="47.58171" lon="3.77625">
        <ele>126</ele>
        <time>2016-09-15T12:29:15Z</time>
      </trkpt>
      <trkpt lat="47.58259" lon="3.77565">
        <ele>126</ele>
        <time>2016-09-15T12:29:15Z</time>
      </trkpt>
      <trkpt lat="47.58343" lon="3.77537">
        <ele>124</ele>
        <time>2016-09-15T12:29:15Z</time>
      </trkpt>
      <trkpt lat="47.58445" lon="3.77453">
        <ele>125</ele>
        <time>2016-09-15T12:29:15Z</time>
      </trkpt>
      <trkpt lat="47.58523" lon="3.77336">
        <ele>124</ele>
        <time>2016-09-15T12:29:15Z</time>
      </trkpt>
      <trkpt lat="47.58578" lon="3.77218">
        <ele>128</ele>
        <time>2016-09-15T12:29:15Z</time>
      </trkpt>
      <trkpt lat="47.58599" lon="3.77138">
        <ele>132</ele>
        <time>2016-09-15T12:29:15Z</time>
      </trkpt>
      <trkpt lat="47.58582" lon="3.77085">
        <ele>129</ele>
        <time>2016-09-15T12:29:15Z</time>
      </trkpt>
      <trkpt lat="47.58485" lon="3.77105">
        <ele>126</ele>
        <time>2016-09-15T12:29:15Z</time>
      </trkpt>
      <trkpt lat="47.58428" lon="3.77164">
        <ele>128</ele>
        <time>2016-09-15T12:29:15Z</time>
      </trkpt>
      <trkpt lat="47.58378" lon="3.77229">
        <ele>130</ele>
        <time>2016-09-15T12:29:15Z</time>
      </trkpt>
      <trkpt lat="47.58364" lon="3.77285">
        <ele>131</ele>
        <time>2016-09-15T12:29:15Z</time>
      </trkpt>
      <trkpt lat="47.58341" lon="3.77304">
        <ele>133</ele>
        <time>2016-09-15T12:29:15Z</time>
      </trkpt>
      <trkpt lat="47.58306" lon="3.77257">
        <ele>135</ele>
        <time>2016-09-15T12:29:15Z</time>
      </trkpt>
      <trkpt lat="47.58201" lon="3.77021">
        <ele>150</ele>
        <time>2016-09-15T12:29:15Z</time>
      </trkpt>
      <trkpt lat="47.58131" lon="3.7686">
        <ele>158</ele>
        <time>2016-09-15T12:29:15Z</time>
      </trkpt>
      <trkpt lat="47.58112" lon="3.76743">
        <ele>163</ele>
        <time>2016-09-15T12:29:15Z</time>
      </trkpt>
      <trkpt lat="47.58074" lon="3.76672">
        <ele>170</ele>
        <time>2016-09-15T12:29:15Z</time>
      </trkpt>
      <trkpt lat="47.58032" lon="3.76638">
        <ele>174</ele>
        <time>2016-09-15T12:29:15Z</time>
      </trkpt>
      <trkpt lat="47.57988" lon="3.76577">
        <ele>180</ele>
        <time>2016-09-15T12:29:15Z</time>
      </trkpt>
      <trkpt lat="47.57975" lon="3.76321">
        <ele>190</ele>
        <time>2016-09-15T12:29:15Z</time>
      </trkpt>
      <trkpt lat="47.58027" lon="3.76325">
        <ele>192</ele>
        <time>2016-09-15T12:29:15Z</time>
      </trkpt>
      <trkpt lat="47.58054" lon="3.76309">
        <ele>190</ele>
        <time>2016-09-15T12:29:15Z</time>
      </trkpt>
      <trkpt lat="47.5807" lon="3.76263">
        <ele>194</ele>
        <time>2016-09-15T12:29:15Z</time>
      </trkpt>
      <trkpt lat="47.5808" lon="3.76057">
        <ele>207</ele>
        <time>2016-09-15T12:29:15Z</time>
      </trkpt>
      <trkpt lat="47.58091" lon="3.75908">
        <ele>207</ele>
        <time>2016-09-15T12:29:15Z</time>
      </trkpt>
      <trkpt lat="47.58094" lon="3.75897">
        <ele>207</ele>
        <time>2016-09-15T12:29:15Z</time>
      </trkpt>
      <trkpt lat="47.58189" lon="3.75738">
        <ele>210</ele>
        <time>2016-09-15T12:29:15Z</time>
      </trkpt>
      <trkpt lat="47.58228" lon="3.75699">
        <ele>212</ele>
        <time>2016-09-15T12:29:15Z</time>
      </trkpt>
      <trkpt lat="47.58304" lon="3.75585">
        <ele>217</ele>
        <time>2016-09-15T12:29:15Z</time>
      </trkpt>
      <trkpt lat="47.58362" lon="3.75447">
        <ele>225</ele>
        <time>2016-09-15T12:29:15Z</time>
      </trkpt>
      <trkpt lat="47.5847" lon="3.75423">
        <ele>228</ele>
        <time>2016-09-15T12:29:15Z</time>
      </trkpt>
      <trkpt lat="47.58593" lon="3.75446">
        <ele>223</ele>
        <time>2016-09-15T12:29:15Z</time>
      </trkpt>
      <trkpt lat="47.58676" lon="3.75472">
        <ele>213</ele>
        <time>2016-09-15T12:29:15Z</time>
      </trkpt>
      <trkpt lat="47.5873" lon="3.75447">
        <ele>202</ele>
        <time>2016-09-15T12:29:15Z</time>
      </trkpt>
      <trkpt lat="47.58783" lon="3.75398">
        <ele>189</ele>
        <time>2016-09-15T12:29:15Z</time>
      </trkpt>
      <trkpt lat="47.58884" lon="3.75387">
        <ele>187</ele>
        <time>2016-09-15T12:29:15Z</time>
      </trkpt>
      <trkpt lat="47.59049" lon="3.75335">
        <ele>192</ele>
        <time>2016-09-15T12:29:15Z</time>
      </trkpt>
      <trkpt lat="47.59098" lon="3.75323">
        <ele>188</ele>
        <time>2016-09-15T12:29:15Z</time>
      </trkpt>
      <trkpt lat="47.59197" lon="3.75363">
        <ele>179</ele>
        <time>2016-09-15T12:29:15Z</time>
      </trkpt>
      <trkpt lat="47.59248" lon="3.75381">
        <ele>176</ele>
        <time>2016-09-15T12:29:15Z</time>
      </trkpt>
      <trkpt lat="47.59307" lon="3.75412">
        <ele>174</ele>
        <time>2016-09-15T12:29:15Z</time>
      </trkpt>
      <trkpt lat="47.59535" lon="3.75498">
        <ele>154</ele>
        <time>2016-09-15T12:29:15Z</time>
      </trkpt>
      <trkpt lat="47.59599" lon="3.75553">
        <ele>149</ele>
        <time>2016-09-15T12:29:15Z</time>
      </trkpt>
      <trkpt lat="47.59639" lon="3.75597">
        <ele>146</ele>
        <time>2016-09-15T12:29:15Z</time>
      </trkpt>
      <trkpt lat="47.59647" lon="3.75557">
        <ele>145</ele>
        <time>2016-09-15T12:29:15Z</time>
      </trkpt>
      <trkpt lat="47.59676" lon="3.75532">
        <ele>147</ele>
        <time>2016-09-15T12:29:15Z</time>
      </trkpt>
      <trkpt lat="47.5971" lon="3.75546">
        <ele>146</ele>
        <time>2016-09-15T12:29:15Z</time>
      </trkpt>
      <trkpt lat="47.59754" lon="3.7557">
        <ele>148</ele>
        <time>2016-09-15T12:29:15Z</time>
      </trkpt>
      <trkpt lat="47.59788" lon="3.75598">
        <ele>148</ele>
        <time>2016-09-15T12:29:15Z</time>
      </trkpt>
      <trkpt lat="47.59824" lon="3.75572">
        <ele>152</ele>
        <time>2016-09-15T12:29:15Z</time>
      </trkpt>
      <trkpt lat="47.598" lon="3.75538">
        <ele>154</ele>
        <time>2016-09-15T12:29:15Z</time>
      </trkpt>
      <trkpt lat="47.59765" lon="3.75451">
        <ele>161</ele>
        <time>2016-09-15T12:29:15Z</time>
      </trkpt>
      <trkpt lat="47.59714" lon="3.7535">
        <ele>173</ele>
        <time>2016-09-15T12:29:15Z</time>
      </trkpt>
      <trkpt lat="47.59637" lon="3.75238">
        <ele>188</ele>
        <time>2016-09-15T12:29:15Z</time>
      </trkpt>
      <trkpt lat="47.59569" lon="3.75097">
        <ele>201</ele>
        <time>2016-09-15T12:29:15Z</time>
      </trkpt>
      <trkpt lat="47.59534" lon="3.74846">
        <ele>215</ele>
        <time>2016-09-15T12:29:15Z</time>
      </trkpt>
      <trkpt lat="47.59498" lon="3.74616">
        <ele>225</ele>
        <time>2016-09-15T12:29:15Z</time>
      </trkpt>
      <trkpt lat="47.59498" lon="3.74476">
        <ele>228</ele>
        <time>2016-09-15T12:29:15Z</time>
      </trkpt>
      <trkpt lat="47.59555" lon="3.74385">
        <ele>223</ele>
        <time>2016-09-15T12:29:15Z</time>
      </trkpt>
      <trkpt lat="47.59809" lon="3.74411">
        <ele>229</ele>
        <time>2016-09-15T12:29:15Z</time>
      </trkpt>
      <trkpt lat="47.59967" lon="3.74386">
        <ele>232</ele>
        <time>2016-09-15T12:29:15Z</time>
      </trkpt>
      <trkpt lat="47.60066" lon="3.74395">
        <ele>231</ele>
        <time>2016-09-15T12:29:15Z</time>
      </trkpt>
      <trkpt lat="47.60138" lon="3.74377">
        <ele>230</ele>
        <time>2016-09-15T12:29:15Z</time>
      </trkpt>
      <trkpt lat="47.60217" lon="3.74366">
        <ele>230</ele>
        <time>2016-09-15T12:29:15Z</time>
      </trkpt>
      <trkpt lat="47.60399" lon="3.74334">
        <ele>223</ele>
        <time>2016-09-15T12:29:15Z</time>
      </trkpt>
      <trkpt lat="47.60505" lon="3.74287">
        <ele>215</ele>
        <time>2016-09-15T12:29:15Z</time>
      </trkpt>
      <trkpt lat="47.60791" lon="3.74258">
        <ele>200</ele>
        <time>2016-09-15T12:29:15Z</time>
      </trkpt>
      <trkpt lat="47.61054" lon="3.74308">
        <ele>193</ele>
        <time>2016-09-15T12:29:15Z</time>
      </trkpt>
      <trkpt lat="47.61212" lon="3.74285">
        <ele>184</ele>
        <time>2016-09-15T12:29:15Z</time>
      </trkpt>
      <trkpt lat="47.60815" lon="3.751">
        <ele>150</ele>
        <time>2016-09-15T12:29:15Z</time>
      </trkpt>
      <trkpt lat="47.60707" lon="3.7507">
        <ele>149</ele>
        <time>2016-09-15T12:29:15Z</time>
      </trkpt>
      <trkpt lat="47.60644" lon="3.75115">
        <ele>139</ele>
        <time>2016-09-15T12:29:15Z</time>
      </trkpt>
      <trkpt lat="47.60715" lon="3.75327">
        <ele>123</ele>
        <time>2016-09-15T12:29:15Z</time>
      </trkpt>
      <trkpt lat="47.60572" lon="3.75442">
        <ele>123</ele>
        <time>2016-09-15T12:29:15Z</time>
      </trkpt>
      <trkpt lat="47.60523" lon="3.75468">
        <ele>123</ele>
        <time>2016-09-15T12:29:15Z</time>
      </trkpt>
      <trkpt lat="47.60462" lon="3.75469">
        <ele>123</ele>
        <time>2016-09-15T12:29:15Z</time>
      </trkpt>
      <trkpt lat="47.60419" lon="3.75515">
        <ele>123</ele>
        <time>2016-09-15T12:29:15Z</time>
      </trkpt>
      <trkpt lat="47.60358" lon="3.75523">
        <ele>124</ele>
        <time>2016-09-15T12:29:15Z</time>
      </trkpt>
      <trkpt lat="47.6026" lon="3.75662">
        <ele>123</ele>
        <time>2016-09-15T12:29:15Z</time>
      </trkpt>
      <trkpt lat="47.60265" lon="3.75672">
        <ele>123</ele>
        <time>2016-09-15T12:29:15Z</time>
      </trkpt>
      <trkpt lat="47.60253" lon="3.75682">
        <ele>123</ele>
        <time>2016-09-15T12:29:15Z</time>
      </trkpt>
      <trkpt lat="47.60253" lon="3.75692">
        <ele>123</ele>
        <time>2016-09-15T12:29:15Z</time>
      </trkpt>
      <trkpt lat="47.60255" lon="3.75702">
        <ele>123</ele>
        <time>2016-09-15T12:29:15Z</time>
      </trkpt>
      <trkpt lat="47.60257" lon="3.75707">
        <ele>123</ele>
        <time>2016-09-15T12:29:15Z</time>
      </trkpt>
      <trkpt lat="47.60107" lon="3.75782">
        <ele>123</ele>
        <time>2016-09-15T12:29:15Z</time>
      </trkpt>
      <trkpt lat="47.60066" lon="3.75841">
        <ele>123</ele>
        <time>2016-09-15T12:29:15Z</time>
      </trkpt>
      <trkpt lat="47.60056" lon="3.75894">
        <ele>123</ele>
        <time>2016-09-15T12:29:15Z</time>
      </trkpt>
      <trkpt lat="47.60169" lon="3.76203">
        <ele>127</ele>
        <time>2016-09-15T12:29:15Z</time>
      </trkpt>
      <trkpt lat="47.60179" lon="3.76303">
        <ele>129</ele>
        <time>2016-09-15T12:29:15Z</time>
      </trkpt>
      <trkpt lat="47.60207" lon="3.76427">
        <ele>132</ele>
        <time>2016-09-15T12:29:15Z</time>
      </trkpt>
      <trkpt lat="47.60061" lon="3.76626">
        <ele>133</ele>
        <time>2016-09-15T12:29:15Z</time>
      </trkpt>
      <trkpt lat="47.60031" lon="3.76688">
        <ele>135</ele>
        <time>2016-09-15T12:29:15Z</time>
      </trkpt>
      <trkpt lat="47.60003" lon="3.76754">
        <ele>136</ele>
        <time>2016-09-15T12:29:15Z</time>
      </trkpt>
      <trkpt lat="47.59935" lon="3.76839">
        <ele>135</ele>
        <time>2016-09-15T12:29:15Z</time>
      </trkpt>
      <trkpt lat="47.59921" lon="3.76838">
        <ele>134</ele>
        <time>2016-09-15T12:29:15Z</time>
      </trkpt>
      <trkpt lat="47.5996" lon="3.76959">
        <ele>146</ele>
        <time>2016-09-15T12:29:15Z</time>
      </trkpt>
      <trkpt lat="47.5994" lon="3.76982">
        <ele>146</ele>
        <time>2016-09-15T12:29:15Z</time>
      </trkpt>
      <trkpt lat="47.5994" lon="3.77091">
        <ele>153</ele>
        <time>2016-09-15T12:29:15Z</time>
      </trkpt>
      <trkpt lat="47.59961" lon="3.77252">
        <ele>164</ele>
        <time>2016-09-15T12:29:15Z</time>
      </trkpt>
      <trkpt lat="47.59971" lon="3.77335">
        <ele>170</ele>
        <time>2016-09-15T12:29:15Z</time>
      </trkpt>
      <trkpt lat="47.59937" lon="3.77527">
        <ele>166</ele>
        <time>2016-09-15T12:29:15Z</time>
      </trkpt>
      <trkpt lat="47.59902" lon="3.77656">
        <ele>167</ele>
        <time>2016-09-15T12:29:15Z</time>
      </trkpt>
      <trkpt lat="47.59883" lon="3.77705">
        <ele>166</ele>
        <time>2016-09-15T12:29:15Z</time>
      </trkpt>
      <trkpt lat="47.5984" lon="3.77757">
        <ele>155</ele>
        <time>2016-09-15T12:29:15Z</time>
      </trkpt>
      <trkpt lat="47.59819" lon="3.778">
        <ele>150</ele>
        <time>2016-09-15T12:29:15Z</time>
      </trkpt>
      <trkpt lat="47.59805" lon="3.77836">
        <ele>146</ele>
        <time>2016-09-15T12:29:15Z</time>
      </trkpt>
      <trkpt lat="47.59807" lon="3.77902">
        <ele>140</ele>
        <time>2016-09-15T12:29:15Z</time>
      </trkpt>
      <trkpt lat="47.59746" lon="3.77937">
        <ele>150</ele>
        <time>2016-09-15T12:29:15Z</time>
      </trkpt>
      <trkpt lat="47.59662" lon="3.77945">
        <ele>156</ele>
        <time>2016-09-15T12:29:15Z</time>
      </trkpt>
      <trkpt lat="47.5966" lon="3.77945">
        <ele>156</ele>
        <time>2016-09-15T12:29:15Z</time>
      </trkpt>
      <trkpt lat="47.59654" lon="3.77956">
        <ele>160</ele>
        <time>2016-09-15T12:29:15Z</time>
      </trkpt>
      <trkpt lat="47.59648" lon="3.77946">
        <ele>156</ele>
        <time>2016-09-15T12:29:15Z</time>
      </trkpt>
      <trkpt lat="47.59641" lon="3.77949">
        <ele>157</ele>
        <time>2016-09-15T12:29:15Z</time>
      </trkpt>
      <trkpt lat="47.59641" lon="3.77959">
        <ele>161</ele>
        <time>2016-09-15T12:29:15Z</time>
      </trkpt>
      <trkpt lat="47.59639" lon="3.77949">
        <ele>157</ele>
        <time>2016-09-15T12:29:15Z</time>
      </trkpt>
      <trkpt lat="47.59632" lon="3.77963">
        <ele>162</ele>
        <time>2016-09-15T12:29:15Z</time>
      </trkpt>
      <trkpt lat="47.59625" lon="3.77959">
        <ele>160</ele>
        <time>2016-09-15T12:29:15Z</time>
      </trkpt>
      <trkpt lat="47.59614" lon="3.77965">
        <ele>162</ele>
        <time>2016-09-15T12:29:15Z</time>
      </trkpt>
      <trkpt lat="47.59607" lon="3.77968">
        <ele>162</ele>
        <time>2016-09-15T12:29:15Z</time>
      </trkpt>
      <trkpt lat="47.596" lon="3.77968">
        <ele>162</ele>
        <time>2016-09-15T12:29:15Z</time>
      </trkpt>
      <trkpt lat="47.59591" lon="3.77971">
        <ele>162</ele>
        <time>2016-09-15T12:29:15Z</time>
      </trkpt>
      <trkpt lat="47.59584" lon="3.77968">
        <ele>161</ele>
        <time>2016-09-15T12:29:15Z</time>
      </trkpt>
      <trkpt lat="47.59578" lon="3.77971">
        <ele>162</ele>
        <time>2016-09-15T12:29:15Z</time>
      </trkpt>
      <trkpt lat="47.59581" lon="3.77986">
        <ele>166</ele>
        <time>2016-09-15T12:29:15Z</time>
      </trkpt>
      <trkpt lat="47.59505" lon="3.77957">
        <ele>159</ele>
        <time>2016-09-15T12:29:15Z</time>
      </trkpt>
      <trkpt lat="47.59466" lon="3.77953">
        <ele>156</ele>
        <time>2016-09-15T12:29:15Z</time>
      </trkpt>
      <trkpt lat="47.59433" lon="3.77965">
        <ele>156</ele>
        <time>2016-09-15T12:29:15Z</time>
      </trkpt>
      <trkpt lat="47.5941" lon="3.77985">
        <ele>157</ele>
        <time>2016-09-15T12:29:15Z</time>
      </trkpt>
      <trkpt lat="47.59392" lon="3.77998">
        <ele>157</ele>
        <time>2016-09-15T12:29:15Z</time>
      </trkpt>
      <trkpt lat="47.59374" lon="3.7799">
        <ele>152</ele>
        <time>2016-09-15T12:29:15Z</time>
      </trkpt>
      <trkpt lat="47.59374" lon="3.77957">
        <ele>146</ele>
        <time>2016-09-15T12:29:15Z</time>
      </trkpt>
      <trkpt lat="47.59352" lon="3.77913">
        <ele>140</ele>
        <time>2016-09-15T12:29:15Z</time>
      </trkpt>
      <trkpt lat="47.59301" lon="3.77889">
        <ele>150</ele>
        <time>2016-09-15T12:29:15Z</time>
      </trkpt>
      <trkpt lat="47.59212" lon="3.77813">
        <ele>143</ele>
        <time>2016-09-15T12:29:15Z</time>
      </trkpt>
      <trkpt lat="47.59132" lon="3.77721">
        <ele>138</ele>
        <time>2016-09-15T12:29:15Z</time>
      </trkpt>
      <trkpt lat="47.59081" lon="3.7765">
        <ele>137</ele>
        <time>2016-09-15T12:29:15Z</time>
      </trkpt>
      <trkpt lat="47.59033" lon="3.77546">
        <ele>131</ele>
        <time>2016-09-15T12:29:15Z</time>
      </trkpt>
      <trkpt lat="47.58987" lon="3.77471">
        <ele>134</ele>
        <time>2016-09-15T12:29:15Z</time>
      </trkpt>
      <trkpt lat="47.58943" lon="3.7736">
        <ele>130</ele>
        <time>2016-09-15T12:29:15Z</time>
      </trkpt>
      <trkpt lat="47.58909" lon="3.772">
        <ele>128</ele>
        <time>2016-09-15T12:29:15Z</time>
      </trkpt>
      <trkpt lat="47.58909" lon="3.77163">
        <ele>128</ele>
        <time>2016-09-15T12:29:15Z</time>
      </trkpt>
      <trkpt lat="47.58946" lon="3.77141">
        <ele>124</ele>
        <time>2016-09-15T12:29:15Z</time>
      </trkpt>
      <trkpt lat="47.58955" lon="3.77111">
        <ele>124</ele>
        <time>2016-09-15T12:29:15Z</time>
      </trkpt>
      <trkpt lat="47.58924" lon="3.77074">
        <ele>125</ele>
        <time>2016-09-15T12:29:15Z</time>
      </trkpt>
      <trkpt lat="47.58906" lon="3.76867">
        <ele>126</ele>
        <time>2016-09-15T12:29:15Z</time>
      </trkpt>
      <trkpt lat="47.58915" lon="3.76691">
        <ele>125</ele>
        <time>2016-09-15T12:29:15Z</time>
      </trkpt>
      <trkpt lat="47.58919" lon="3.76549">
        <ele>125</ele>
        <time>2016-09-15T12:29:15Z</time>
      </trkpt>
      <trkpt lat="47.58916" lon="3.76436">
        <ele>127</ele>
        <time>2016-09-15T12:29:15Z</time>
      </trkpt>
      <trkpt lat="47.58906" lon="3.76359">
        <ele>128</ele>
        <time>2016-09-15T12:29:15Z</time>
      </trkpt>
      <trkpt lat="47.58893" lon="3.76319">
        <ele>128</ele>
        <time>2016-09-15T12:29:15Z</time>
      </trkpt>
      <trkpt lat="47.58842" lon="3.76254">
        <ele>131</ele>
        <time>2016-09-15T12:29:15Z</time>
      </trkpt>
      <trkpt lat="47.58788" lon="3.76213">
        <ele>134</ele>
        <time>2016-09-15T12:29:15Z</time>
      </trkpt>
      <trkpt lat="47.58699" lon="3.7616">
        <ele>136</ele>
        <time>2016-09-15T12:29:15Z</time>
      </trkpt>
      <trkpt lat="47.58585" lon="3.76131">
        <ele>135</ele>
        <time>2016-09-15T12:29:15Z</time>
      </trkpt>
      <trkpt lat="47.58589" lon="3.76154">
        <ele>137</ele>
        <time>2016-09-15T12:29:15Z</time>
      </trkpt>
      <trkpt lat="47.58582" lon="3.76171">
        <ele>139</ele>
        <time>2016-09-15T12:29:15Z</time>
      </trkpt>
      <trkpt lat="47.58531" lon="3.76269">
        <ele>152</ele>
        <time>2016-09-15T12:29:15Z</time>
      </trkpt>
      <trkpt lat="47.58562" lon="3.76379">
        <ele>166</ele>
        <time>2016-09-15T12:29:15Z</time>
      </trkpt>
      <trkpt lat="47.58566" lon="3.76529">
        <ele>175</ele>
        <time>2016-09-15T12:29:15Z</time>
      </trkpt>
      <trkpt lat="47.58568" lon="3.76602">
        <ele>180</ele>
        <time>2016-09-15T12:29:15Z</time>
      </trkpt>
      <trkpt lat="47.58585" lon="3.76663">
        <ele>185</ele>
        <time>2016-09-15T12:29:15Z</time>
      </trkpt>
      <trkpt lat="47.5861" lon="3.76816">
        <ele>174</ele>
        <time>2016-09-15T12:29:15Z</time>
      </trkpt>
      <trkpt lat="47.58613" lon="3.76825">
        <ele>173</ele>
        <time>2016-09-15T12:29:15Z</time>
      </trkpt>
      <trkpt lat="47.58616" lon="3.76835">
        <ele>170</ele>
        <time>2016-09-15T12:29:15Z</time>
      </trkpt>
      <trkpt lat="47.58615" lon="3.76845">
        <ele>167</ele>
        <time>2016-09-15T12:29:15Z</time>
      </trkpt>
      <trkpt lat="47.5862" lon="3.76855">
        <ele>166</ele>
        <time>2016-09-15T12:29:15Z</time>
      </trkpt>
      <trkpt lat="47.58624" lon="3.76878">
        <ele>162</ele>
        <time>2016-09-15T12:29:15Z</time>
      </trkpt>
      <trkpt lat="47.58628" lon="3.76888">
        <ele>164</ele>
        <time>2016-09-15T12:29:15Z</time>
      </trkpt>
      <trkpt lat="47.5863" lon="3.76898">
        <ele>163</ele>
        <time>2016-09-15T12:29:15Z</time>
      </trkpt>
      <trkpt lat="47.58633" lon="3.76908">
        <ele>163</ele>
        <time>2016-09-15T12:29:15Z</time>
      </trkpt>
      <trkpt lat="47.58635" lon="3.76932">
        <ele>161</ele>
        <time>2016-09-15T12:29:15Z</time>
      </trkpt>
      <trkpt lat="47.58634" lon="3.76942">
        <ele>159</ele>
        <time>2016-09-15T12:29:15Z</time>
      </trkpt>
      <trkpt lat="47.58635" lon="3.76932">
        <ele>161</ele>
        <time>2016-09-15T12:29:15Z</time>
      </trkpt>
      <trkpt lat="47.58634" lon="3.76942">
        <ele>159</ele>
        <time>2016-09-15T12:29:15Z</time>
      </trkpt>
      <trkpt lat="47.58637" lon="3.76952">
        <ele>159</ele>
        <time>2016-09-15T12:29:15Z</time>
      </trkpt>
      <trkpt lat="47.58634" lon="3.76942">
        <ele>159</ele>
        <time>2016-09-15T12:29:15Z</time>
      </trkpt>
      <trkpt lat="47.58642" lon="3.76947">
        <ele>164</ele>
        <time>2016-09-15T12:29:15Z</time>
      </trkpt>
      <trkpt lat="47.58657" lon="3.7699">
        <ele>166</ele>
        <time>2016-09-15T12:29:15Z</time>
      </trkpt>
      <trkpt lat="47.58677" lon="3.77041">
        <ele>171</ele>
        <time>2016-09-15T12:29:15Z</time>
      </trkpt>
      <trkpt lat="47.5871" lon="3.77072">
        <ele>180</ele>
        <time>2016-09-15T12:29:15Z</time>
      </trkpt>
      <trkpt lat="47.58726" lon="3.77118">
        <ele>183</ele>
        <time>2016-09-15T12:29:15Z</time>
      </trkpt>
      <trkpt lat="47.58756" lon="3.77212">
        <ele>186</ele>
        <time>2016-09-15T12:29:15Z</time>
      </trkpt>
      <trkpt lat="47.58741" lon="3.77315">
        <ele>193</ele>
        <time>2016-09-15T12:29:15Z</time>
      </trkpt>
      <trkpt lat="47.58698" lon="3.77387">
        <ele>198</ele>
        <time>2016-09-15T12:29:15Z</time>
      </trkpt>
      <trkpt lat="47.58681" lon="3.77473">
        <ele>200</ele>
        <time>2016-09-15T12:29:15Z</time>
      </trkpt>
      <trkpt lat="47.58651" lon="3.77539">
        <ele>205</ele>
        <time>2016-09-15T12:29:15Z</time>
      </trkpt>
      <trkpt lat="47.5865" lon="3.77579">
        <ele>205</ele>
        <time>2016-09-15T12:29:15Z</time>
      </trkpt>
      <trkpt lat="47.58625" lon="3.77594">
        <ele>204</ele>
        <time>2016-09-15T12:29:15Z</time>
      </trkpt>
      <trkpt lat="47.58616" lon="3.77647">
        <ele>206</ele>
        <time>2016-09-15T12:29:15Z</time>
      </trkpt>
      <trkpt lat="47.58616" lon="3.77654">
        <ele>206</ele>
        <time>2016-09-15T12:29:15Z</time>
      </trkpt>
      <trkpt lat="47.58612" lon="3.77672">
        <ele>206</ele>
        <time>2016-09-15T12:29:15Z</time>
      </trkpt>
      <trkpt lat="47.58621" lon="3.77679">
        <ele>205</ele>
        <time>2016-09-15T12:29:15Z</time>
      </trkpt>
      <trkpt lat="47.5863" lon="3.77686">
        <ele>205</ele>
        <time>2016-09-15T12:29:15Z</time>
      </trkpt>
      <trkpt lat="47.58634" lon="3.77696">
        <ele>205</ele>
        <time>2016-09-15T12:29:15Z</time>
      </trkpt>
      <trkpt lat="47.58618" lon="3.77712">
        <ele>205</ele>
        <time>2016-09-15T12:29:15Z</time>
      </trkpt>
      <trkpt lat="47.58618" lon="3.77726">
        <ele>204</ele>
        <time>2016-09-15T12:29:15Z</time>
      </trkpt>
      <trkpt lat="47.58613" lon="3.77735">
        <ele>204</ele>
        <time>2016-09-15T12:29:15Z</time>
      </trkpt>
      <trkpt lat="47.58609" lon="3.77749">
        <ele>202</ele>
        <time>2016-09-15T12:29:15Z</time>
      </trkpt>
      <trkpt lat="47.58611" lon="3.77765">
        <ele>201</ele>
        <time>2016-09-15T12:29:15Z</time>
      </trkpt>
      <trkpt lat="47.58622" lon="3.77779">
        <ele>200</ele>
        <time>2016-09-15T12:29:15Z</time>
      </trkpt>
      <trkpt lat="47.58626" lon="3.77769">
        <ele>202</ele>
        <time>2016-09-15T12:29:15Z</time>
      </trkpt>
      <trkpt lat="47.5863" lon="3.77771">
        <ele>202</ele>
        <time>2016-09-15T12:29:15Z</time>
      </trkpt>
      <trkpt lat="47.58633" lon="3.77779">
        <ele>202</ele>
        <time>2016-09-15T12:29:15Z</time>
      </trkpt>
      <trkpt lat="47.58637" lon="3.77789">
        <ele>202</ele>
        <time>2016-09-15T12:29:15Z</time>
      </trkpt>
      <trkpt lat="47.58643" lon="3.77798">
        <ele>202</ele>
        <time>2016-09-15T12:29:15Z</time>
      </trkpt>
      <trkpt lat="47.58667" lon="3.77865">
        <ele>201</ele>
        <time>2016-09-15T12:29:15Z</time>
      </trkpt>
      <trkpt lat="47.58684" lon="3.77952">
        <ele>202</ele>
        <time>2016-09-15T12:29:15Z</time>
      </trkpt>
      <trkpt lat="47.58679" lon="3.77985">
        <ele>204</ele>
        <time>2016-09-15T12:29:15Z</time>
      </trkpt>
      <trkpt lat="47.58603" lon="3.77916">
        <ele>192</ele>
        <time>2016-09-15T12:29:15Z</time>
      </trkpt>
      <trkpt lat="47.58554" lon="3.77898">
        <ele>183</ele>
        <time>2016-09-15T12:29:15Z</time>
      </trkpt>
      <trkpt lat="47.58505" lon="3.77874">
        <ele>175</ele>
        <time>2016-09-15T12:29:15Z</time>
      </trkpt>
      <trkpt lat="47.58451" lon="3.77846">
        <ele>168</ele>
        <time>2016-09-15T12:29:15Z</time>
      </trkpt>
      <trkpt lat="47.58404" lon="3.77848">
        <ele>165</ele>
        <time>2016-09-15T12:29:15Z</time>
      </trkpt>
      <trkpt lat="47.5835" lon="3.77873">
        <ele>161</ele>
        <time>2016-09-15T12:29:15Z</time>
      </trkpt>
      <trkpt lat="47.58277" lon="3.77894">
        <ele>150</ele>
        <time>2016-09-15T12:29:15Z</time>
      </trkpt>
      <trkpt lat="47.58212" lon="3.77919">
        <ele>139</ele>
        <time>2016-09-15T12:29:15Z</time>
      </trkpt>
      <trkpt lat="47.58153" lon="3.77954">
        <ele>132</ele>
        <time>2016-09-15T12:29:15Z</time>
      </trkpt>
      <trkpt lat="47.58092" lon="3.77969">
        <ele>132</ele>
        <time>2016-09-15T12:29:15Z</time>
      </trkpt>
      <trkpt lat="47.58038" lon="3.77974">
        <ele>134</ele>
        <time>2016-09-15T12:29:15Z</time>
      </trkpt>
      <trkpt lat="47.57975" lon="3.77969">
        <ele>135</ele>
        <time>2016-09-15T12:29:15Z</time>
      </trkpt>
      <trkpt lat="47.5797" lon="3.77957">
        <ele>135</ele>
        <time>2016-09-15T12:29:15Z</time>
      </trkpt>
      <trkpt lat="47.57963" lon="3.77954">
        <ele>135</ele>
        <time>2016-09-15T12:29:15Z</time>
      </trkpt>
      <trkpt lat="47.57956" lon="3.77947">
        <ele>135</ele>
        <time>2016-09-15T12:29:15Z</time>
      </trkpt>
      <trkpt lat="47.5795" lon="3.77943">
        <ele>135</ele>
        <time>2016-09-15T12:29:15Z</time>
      </trkpt>
      <trkpt lat="47.57943" lon="3.77933">
        <ele>134</ele>
        <time>2016-09-15T12:29:15Z</time>
      </trkpt>
      <trkpt lat="47.57936" lon="3.77933">
        <ele>135</ele>
        <time>2016-09-15T12:29:15Z</time>
      </trkpt>
      <trkpt lat="47.57923" lon="3.77946">
        <ele>137</ele>
        <time>2016-09-15T12:29:15Z</time>
      </trkpt>
      <trkpt lat="47.5791" lon="3.77944">
        <ele>138</ele>
        <time>2016-09-15T12:29:15Z</time>
      </trkpt>
      <trkpt lat="47.57874" lon="3.7794">
        <ele>140</ele>
        <time>2016-09-15T12:29:15Z</time>
      </trkpt>
      <trkpt lat="47.57839" lon="3.77892">
        <ele>128</ele>
        <time>2016-09-15T12:29:15Z</time>
      </trkpt>
      <trkpt lat="47.57795" lon="3.77831">
        <ele>125</ele>
        <time>2016-09-15T12:29:15Z</time>
      </trkpt>
      <trkpt lat="47.57739" lon="3.77797">
        <ele>125</ele>
        <time>2016-09-15T12:29:15Z</time>
      </trkpt>
      <trkpt lat="47.57773" lon="3.77751">
        <ele>125</ele>
        <time>2016-09-15T12:29:15Z</time>
      </trkpt>
    </trkseg>
  </trk>
</gpx>